Flag for Canada Weather past 2 weeks in Surrey, British Columbia, Canada

Now
48 °F

Cool.


Feels Like: 45 °F
Forecast: 46 / 51 °F
Wind: 7 mph from Northeast

Location: P. Meadows Coastal Station

Current Time: Mar 29, 2015 at 2:40:21 AM

Latest Report: Mar 29, 2015 at 2:00 AM


Visibility: N/A

Pressure: 30.27 "Hg

Humidity: 95%

Dew point: 47 °F

Location of SurreyLocation

Historic Weather in Surrey — Graph

°F

Surrey temperature yesterday

Maximum temperature yesterday: 58 °F (at 2:00 PM)
Minimum temperature yesterday: 49 °F (at 11:00 PM)
Average temperature yesterday: 52 °F

Past Weeks' High & Low Weather Summary

 TemperatureHumidityPressure
High64 °F (Mar 27, 3:00 PM)100% (Mar 19, 7:00 AM)30.31 "Hg (Mar 19, 7:00 AM)
Low38 °F (Mar 17, 2:00 AM)30% (Mar 16, 5:00 PM)29.68 "Hg (Mar 14, 9:00 AM)
Average49 °F85%30.06 "Hg
* Reported Mar 14 1:00 AM — Mar 29 1:00 AM, Surrey, Weather by CustomWeather, © 2015

Note: Actual official high and low records may vary slightly from our data, if they occured in-between our weather recording intervals... More about our weather records

Advertising

Surrey weather history for previous 24 hours

 ConditionsComfort  
Time TempWeatherWind HumidityBarometerVisibility
1:00 AM
Sun, Mar 29
48 °FCool.7 mph94%30.28 "HgN/A
12:00 AM49 °FCool.2 mph94%30.30 "HgN/A
11:00 PM
Sat, Mar 28
49 °FCool.3 mph96%30.29 "HgN/A
10:00 PM49 °FCool.2 mph87%30.30 "HgN/A
9:00 PM49 °FCool.7 mph87%30.29 "HgN/A
8:00 PM51 °FCool.5 mph90%30.29 "HgN/A
7:00 PM53 °FCool.No wind76%30.29 "HgN/A
6:00 PM53 °FCool.2 mph70%30.29 "HgN/A
5:00 PM56 °FCool.3 mph61%30.29 "HgN/A
4:00 PM57 °FRefreshingly cool.5 mph58%30.29 "HgN/A
3:00 PM58 °FRefreshingly cool.5 mph57%30.29 "HgN/A
2:00 PM58 °FRefreshingly cool.6 mph59%30.30 "HgN/A
1:00 PM57 °FRefreshingly cool.6 mph59%30.28 "HgN/A
12:00 PM56 °FCool.6 mph64%30.27 "HgN/A
11:00 AM55 °FCool.5 mph68%30.24 "HgN/A
10:00 AM53 °FCool.6 mph76%30.21 "HgN/A
9:00 AM51 °FCool.2 mph83%30.16 "HgN/A
8:00 AM50 °FCool.2 mph88%30.11 "HgN/A
7:00 AM50 °FCool.3 mph86%30.07 "HgN/A
6:00 AM49 °FCool.2 mph87%30.03 "HgN/A
5:00 AM50 °FCool.3 mph82%29.99 "HgN/A
4:00 AM50 °FCool.6 mph82%29.97 "HgN/A
3:00 AM50 °FCool.6 mph82%29.96 "HgN/A
2:00 AM51 °FCool.8 mph83%29.96 "HgN/A
Weather by CustomWeather, © 2015

See weather overviewHow to use our weather pages